Regional Weather Roundup
Issued by NWS

Home | Current Version | Previous Version | Graphics & Text | Print | Product List | Glossary On
Versions: 1 2 3 4 5 6 7 8 9 10 11 12 13 14 15 16 17 18 19 20 21 22 23 24 25 26 27 28 29 30 31 32 33 34 35 36 37 38 39 40 41 42 43 44 45 46 47 48 49 50
000
ASUS45 KPSR 302200
RWRAZ

PRELIMINARY ARIZONA REGIONAL HOURLY WEATHER ROUNDUP
NATIONAL WEATHER SERVICE PHOENIX AZ
300 PM MST THU OCT 30 2014

NOTE: FAIR INDICATES FEW OR NO CLOUDS BELOW 12,000 FEET WITH NO
SIGNIFICANT WEATHER AND/OR OBSTRUCTIONS TO VISIBILITY.

AZZ001>003-036-302300-
NORTHWEST ARIZONA

CITY           SKY/WX    TMP DP  RH WIND       PRES   REMARKS
KINGMAN        MOSUNNY   81  32  17 SW13      30.06F
$$

AZZ004>008-015-016-018-302300-
NORTH CENTRAL ARIZONA

CITY           SKY/WX    TMP DP  RH WIND       PRES   REMARKS
GRAND CANYON   SUNNY     70  18  13 NE14      30.27S
PRESCOTT       PTSUNNY   76  26  15 SE13G21   30.17S
FLAGSTAFF      SUNNY     67  22  18 E8        30.29F
PAYSON         SUNNY     72  34  25 S8G15     30.21S
PAGE           SUNNY     70  20  15 CALM      30.19F
$$

AZZ009>014-017-302300-
NORTHEAST ARIZONA

CITY           SKY/WX    TMP DP  RH WIND       PRES   REMARKS
WINSLOW        NOT AVBL
SAINT JOHNS    SUNNY     78  18  10 NE3       30.19F
WINDOW ROCK    SUNNY     73   5   7 E9        30.30F
$$

AZZ023-302300-
GREATER PHOENIX AREA

CITY           SKY/WX    TMP DP  RH WIND       PRES   REMARKS
PHOENIX        PTSUNNY   91  38  15 CALM      29.91F
GLENDALE       PTSUNNY   90  39  17 CALM      29.94S
DEER VALLEY    PTSUNNY   89  34  14 S7        29.93F
SCOTTSDALE     PTSUNNY   90  35  14 CALM      29.95F
CHANDLER       PTSUNNY   90  41  18 CALM      29.93
$$

AZZ027-028-302300-
SOUTHWEST MARICOPA COUNTY AND PINAL COUNTY

CITY           SKY/WX    TMP DP  RH WIND       PRES   REMARKS
CASA GRANDE    PTSUNNY   91  43  18 CALM      29.94F
GILA BEND      MOCLDY    91  39  16 N7        29.90F
$$

AZZ503-504-507>509-302300-
SOUTHEAST ARIZONA

CITY           SKY/WX    TMP DP  RH WIND       PRES   REMARKS
TUCSON         PTSUNNY   89  32  13 E7        30.00F
RYAN FIELD       N/A     91  39  16 E8        29.99F
NOGALES        MOSUNNY   86  38  18 SE12      30.07F
SIERRA VISTA   PTSUNNY   82  30  15 VRB5      30.14F
SAFFORD        SUNNY     85  33  15 S8        30.06F
$$

AZZ020-021-025-026-031-302300-
SOUTHWEST ARIZONA

CITY           SKY/WX    TMP DP  RH WIND       PRES   REMARKS
YUMA           PTSUNNY   91  36  14 CALM      29.87F
$$

CAZ031-033-041-043-047-048-061-302300-
SOUTHERN CALIFORNIA

CITY           SKY/WX    TMP DP  RH WIND       PRES   REMARKS
DOWNTOWN L.A.  SUNNY     74  57  55 VRB3      29.94F
L.A. AIRPORT   PTSUNNY   71  62  73 W18       29.95F
SAN DIEGO      MOSUNNY   73  61  65 W8        29.96F
BURBANK        MOSUNNY   78  53  41 S9        29.93F
ONTARIO        PTSUNNY   84  42  22 W12       29.93F
RIVERSIDE      MOSUNNY   85  39  19 W10       29.92F
PALM SPRINGS   MOSUNNY   91  34  13 E10       29.90F
EL CENTRO NAS  MOSUNNY   90  32  12 E5        29.87F
IMPERIAL       SUNNY     90  32  12 SE3       29.87F
BLYTHE         CLOUDY    87  29  12 NW3       29.90F
$$

NVZ020-UTZ003-302300-
SOUTHERN NEVADA-UTAH

CITY           SKY/WX    TMP DP  RH WIND       PRES   REMARKS
LAS VEGAS      NOT AVBL
SALT LAKE CITY MOSUNNY   68  29  23 N6        30.15F
$$

NMZ009-TXZ055-302300-
NEW MEXICO-WEST TEXAS

CITY           SKY/WX    TMP DP  RH WIND       PRES   REMARKS
ALBUQUERQUE    SUNNY     72  17  12 S9        30.27F
EL PASO        MOSUNNY   81  35  19 N9        30.15F
$$


........................KEY........................
SKY/WX - SKY CONDITION/WEATHER
TMP    - TEMPERATURE IN FAHRENHEIT
DP     - DEW POINT IN FAHRENHEIT
RH     - RELATIVE HUMIDITY IN PERCENT
WIND   - DIRECTION AND SPEED IN MILES PER HOUR (MPH)
VRB    - VARIABLE WIND DIRECTION
PRES   - MEAN SEA LEVEL PRESSURE IN INCHES OF MERCURY
         F - FALLING PRESSURE   R - RISING PRESSURE
         S - STEADY PRESSURE
VSB    - VISIBILITY IN MILES
HX     - HEAT INDEX IN FAHRENHEIT
WCI    - WIND CHILL INDEX IN FAHRENHEIT
TC     - TEMPERATURE IN CELSIUS WHICH IS ALSO KNOWN AS
         TEMPERATURE IN CENTIGRADE
AFB    - AIR FORCE BASE
         LUKE AFB IS LUKE AIR FORCE BASE
         DAVIS-MONTHAN IS DAVIS-MONTHAN AIR FORCE BASE
NAS    - NAVAL AIR STATION
         EL CENTRO NAS IS EL CENTRO NAVAL AIR STATION
N/A    - NOT AVAILABLE



USA.gov is the U.S. government's official web portal to all federal, state and local government web resources and services.